Theta_e
303 299 297 295 293 293 292 292 292 291 291 291 290 291 292 293 296 297 295 294 293 294 293 291 292 293 291 290 287 287 287 287 287 286 285 285 285 285 285 285 286 286 287 287 287 287 287 287 287 287 287 287 288 289 289 290 290 290 290 291 291 291 292 292 292 292 292 292 292 293 293 293 293 294
299 296 294 293 293 292 291 291 291 290 290 290 289 290 289 290 293 294 296 297 293 292 292 290 291 291 290 288 287 287 287 286 286 285 285 285 285 284 284 284 285 285 286 286 286 286 286 286 286 286 286 287 288 288 289 289 289 290 290 290 291 291 291 291 291 291 291 291 292 292 292 292 293 293
296 294 293 293 292 291 291 290 290 289 290 289 289 289 288 289 290 290 293 296 293 291 290 290 290 290 289 288 287 286 286 286 286 285 284 285 285 284 284 284 284 284 285 286 286 285 286 285 286 286 286 286 287 288 288 288 288 289 289 290 290 290 290 290 290 290 290 290 291 291 291 291 292 292
293 293 293 292 291 291 290 290 289 289 289 289 289 289 288 288 289 288 290 293 291 289 289 289 289 289 287 287 286 286 286 286 285 284 284 285 284 283 283 284 283 283 283 285 285 285 285 285 285 285 285 286 286 287 287 288 288 288 289 289 289 289 289 289 289 289 289 289 290 290 290 291 291 291
292 292 292 291 291 290 290 289 289 289 289 289 288 288 288 288 288 288 288 289 289 288 288 288 287 287 287 286 286 286 286 285 284 284 284 284 283 283 283 283 283 283 283 284 284 284 283 284 284 284 284 285 286 286 287 287 287 288 288 288 288 288 288 289 289 288 288 289 289 289 289 290 290 291
292 292 292 291 290 289 289 289 289 289 288 288 288 288 287 287 288 288 287 287 287 287 287 287 287 287 286 286 286 286 286 285 284 284 284 283 283 283 283 283 283 282 282 283 283 282 282 282 283 283 284 284 285 285 286 286 286 287 288 288 287 287 287 288 288 288 288 288 288 288 289 289 289 289
291 291 291 290 290 289 289 289 288 288 288 288 288 287 287 287 287 287 286 286 286 286 287 287 286 286 286 286 285 285 285 284 284 283 283 283 282 283 283 282 282 282 281 282 281 281 281 281 282 282 283 283 284 285 285 285 286 286 287 287 287 287 287 287 287 287 287 287 287 288 288 288 288 288
291 291 290 290 289 289 289 288 288 288 288 288 288 287 286 286 286 286 286 286 286 286 286 286 286 285 286 286 285 285 285 284 283 283 282 282 282 283 283 282 281 281 281 281 281 281 281 281 281 281 282 283 283 284 284 284 285 286 286 286 286 286 286 286 286 286 286 286 286 287 287 287 287 287
292 291 290 290 289 289 289 288 288 288 288 288 287 287 286 286 286 285 285 286 286 286 286 286 286 285 285 285 284 285 284 283 283 282 282 282 282 282 283 282 281 281 280 280 280 280 281 280 280 280 281 281 282 283 283 283 284 285 286 286 286 286 285 285 285 285 285 285 286 286 286 286 286 286
291 291 290 290 289 289 289 288 288 288 288 288 287 287 286 286 286 285 285 286 286 286 286 286 286 285 285 284 284 284 283 282 282 282 281 281 282 281 282 282 281 281 280 280 280 280 280 279 280 280 280 280 281 281 281 282 283 284 285 286 285 285 285 285 285 285 285 285 285 285 285 285 285 285
291 290 290 289 289 289 289 289 288 288 288 287 287 287 286 286 285 285 286 286 285 285 285 285 285 285 284 284 284 283 282 282 282 281 281 281 281 281 280 281 281 280 280 280 280 280 279 279 279 279 279 280 281 281 281 281 283 284 285 285 285 285 284 284 284 284 284 284 284 284 284 284 285 284
290 289 289 289 289 289 288 288 288 288 288 287 287 287 286 286 285 285 286 286 285 285 285 285 285 284 284 283 283 283 282 282 282 281 280 280 280 280 280 280 280 279 280 280 280 280 279 279 279 279 279 280 281 281 281 281 282 283 284 284 284 284 284 283 283 283 284 283 283 283 283 283 283 284
289 289 289 288 288 288 288 288 288 287 287 287 287 287 286 286 285 285 286 285 284 284 285 284 284 283 283 283 283 282 282 281 281 280 279 279 279 279 279 280 280 279 279 279 280 280 278 278 278 278 279 279 280 281 281 281 282 283 283 284 284 284 283 283 283 283 283 283 283 282 282 282 282 282
288 288 288 288 288 288 288 288 287 287 287 287 287 287 286 286 286 285 285 285 284 284 284 283 283 283 282 282 282 282 282 281 281 280 279 279 279 278 278 279 279 279 278 278 279 280 278 277 278 278 278 278 279 280 280 281 282 282 283 283 283 283 283 283 283 283 282 282 282 282 281 281 281 281
288 288 288 288 288 288 287 287 287 286 286 286 286 286 286 285 285 285 285 284 284 284 283 283 283 282 282 282 282 282 282 281 280 279 279 279 279 278 278 278 279 279 278 276 277 279 278 277 277 277 278 278 278 279 279 280 281 282 282 282 282 282 282 282 282 282 282 282 281 281 281 280 280 280
288 288 288 288 287 287 287 287 286 286 286 286 285 285 285 285 285 285 285 284 284 284 283 283 282 282 281 281 281 281 281 280 279 278 278 279 278 278 277 277 277 278 277 276 276 278 279 277 276 277 278 278 278 279 279 280 281 281 281 281 281 281 281 281 281 281 282 281 281 280 280 280 279 279
289 288 288 287 287 287 287 287 286 286 286 285 285 285 285 285 285 284 284 284 284 283 283 282 282 282 281 281 281 281 280 279 278 278 278 278 278 277 277 277 277 277 277 276 275 277 278 277 276 277 277 278 278 279 279 279 280 280 280 280 280 280 280 280 280 280 281 281 281 280 279 279 278 278
289 289 288 288 288 287 287 286 286 286 286 285 285 285 285 285 284 284 284 284 283 283 283 282 282 282 281 281 281 280 279 278 278 278 279 278 277 277 276 276 276 277 276 275 275 276 277 277 275 276 277 277 278 279 279 279 279 279 279 279 279 279 279 279 279 279 280 281 281 280 278 277 277 277
289 289 288 288 288 288 287 287 286 286 286 285 285 285 285 285 285 284 284 283 283 283 283 282 282 282 281 280 280 279 279 278 278 278 278 278 277 276 276 276 276 277 276 275 275 275 276 276 275 276 276 277 278 279 278 278 278 278 278 278 277 277 278 278 278 278 279 279 280 280 279 277 276 275
288 288 288 288 288 287 287 287 286 286 285 285 285 285 285 285 284 284 284 283 283 283 282 282 281 281 280 280 280 279 279 279 279 278 278 277 277 276 275 275 275 276 276 276 275 275 275 275 275 275 276 276 277 278 278 277 278 278 278 278 277 276 276 276 276 277 278 278 279 280 279 277 275 274
288 288 288 288 287 287 287 286 286 285 285 285 285 285 285 284 284 284 283 283 283 282 282 281 281 280 280 280 280 280 279 279 279 278 277 277 276 275 275 274 274 275 275 275 275 275 275 275 274 274 275 277 277 277 277 277 277 278 278 277 277 276 275 275 276 276 276 277 278 278 279 278 275 274
287 287 287 287 287 287 286 286 286 285 285 285 285 285 285 284 284 284 283 283 283 282 281 281 281 281 281 280 280 279 279 278 278 278 277 276 276 275 274 274 274 274 275 275 275 275 275 274 274 273 274 276 276 277 277 277 277 277 277 277 277 276 275 275 275 275 275 276 277 277 278 278 276 274
286 286 287 286 286 286 286 286 285 285 285 285 285 285 284 284 284 284 283 283 283 282 282 281 281 281 280 280 280 279 279 278 278 277 277 276 275 274 274 274 273 274 275 275 274 274 274 273 273 273 273 274 275 276 277 277 277 277 277 277 277 276 275 275 275 275 275 275 276 276 277 277 277 275
286 286 286 286 286 286 285 285 285 285 285 285 285 285 285 285 285 284 283 283 283 282 282 281 281 280 280 279 279 279 279 278 278 278 276 275 275 274 273 273 273 273 274 275 274 273 273 272 273 273 273 273 274 275 276 276 277 277 277 277 276 275 275 275 275 274 275 275 275 275 275 276 276 276
286 286 286 286 286 285 285 285 285 284 284 285 285 285 285 285 284 283 283 283 283 282 282 281 281 280 280 279 279 279 278 278 278 277 276 275 274 274 273 273 273 273 274 275 273 273 273 272 272 272 272 273 273 274 274 276 277 277 277 276 276 275 274 274 274 274 274 274 274 274 274 275 276 276
286 286 286 286 286 285 285 285 284 284 284 284 285 284 284 284 283 282 282 282 282 281 281 281 280 280 279 279 279 278 278 278 278 277 276 274 274 273 273 273 273 273 275 275 273 272 272 272 272 272 272 272 273 273 274 276 276 277 277 277 276 275 274 273 273 274 274 274 274 273 273 274 274 275
286 287 286 286 286 285 285 285 284 284 284 284 284 284 283 283 282 282 281 281 281 281 280 280 279 279 279 279 278 278 278 277 277 277 275 274 273 273 274 274 273 273 274 274 274 273 272 272 272 272 271 272 272 273 274 275 276 276 277 277 276 275 274 273 273 273 273 273 273 273 273 273 273 274
287 286 286 286 286 285 286 285 284 283 284 284 284 283 283 282 281 281 281 281 281 280 280 279 279 279 279 278 278 278 277 277 277 277 276 275 274 274 274 274 274 273 274 274 274 274 273 273 273 272 272 272 272 273 274 275 275 275 276 276 276 275 273 273 273 272 272 272 272 273 273 273 273 273
286 286 286 286 286 286 286 285 283 283 284 284 283 283 282 282 281 281 281 280 280 280 280 280 280 279 279 278 278 277 277 277 277 277 276 275 274 274 274 274 274 274 274 274 274 274 273 273 273 273 272 272 272 272 273 274 274 275 275 275 275 274 273 273 272 272 272 272 272 272 272 272 273 273
285 285 285 285 285 285 284 283 283 283 283 283 282 282 281 281 280 280 279 279 279 280 280 280 279 279 278 277 277 276 276 276 276 276 275 275 274 274 273 274 274 275 274 275 275 274 274 274 273 273 273 273 273 273 273 273 274 275 274 274 273 274 274 273 272 272 272 271 271 272 272 272 272 272
284 284 284 284 284 284 283 282 283 283 283 282 282 281 280 280 279 279 278 277 278 279 279 279 278 278 277 276 276 276 275 276 276 275 275 274 274 273 273 273 274 275 275 275 274 274 274 274 273 273 273 273 274 274 273 273 273 274 274 273 273 273 273 273 272 272 272 271 271 272 272 272 272 272
283 283 283 282 282 282 282 282 282 282 281 281 281 281 280 279 279 278 278 277 277 277 277 277 277 276 276 276 276 275 275 275 275 274 274 273 274 274 273 273 273 274 274 274 274 274 274 273 273 273 273 273 274 274 273 273 274 274 274 274 273 273 273 273 272 272 272 271 271 272 272 272 272 273
282 282 282 282 282 281 281 281 281 281 280 280 280 279 279 279 278 278 277 276 276 276 276 276 276 276 276 276 275 275 275 274 274 274 273 273 273 273 273 273 273 273 273 273 273 273 273 273 273 273 273 273 273 273 273 274 274 274 274 273 273 273 273 273 272 272 272 271 271 271 271 271 272 273
281 281 281 281 281 281 281 280 280 280 279 278 278 278 278 278 278 277 276 276 276 276 276 276 276 275 275 275 275 275 274 274 273 273 273 273 273 273 272 272 272 272 272 272 273 273 273 273 272 272 273 273 274 274 274 274 274 274 274 273 273 273 273 273 272 272 271 271 271 271 271 271 272 272
281 281 281 280 280 280 280 279 279 279 278 277 277 277 277 277 276 276 276 276 276 275 275 275 275 275 275 275 275 274 273 273 273 272 273 273 272 272 272 272 272 272 272 272 272 273 272 272 272 272 273 273 274 274 275 274 274 274 274 273 273 273 273 272 272 272 271 271 271 271 271 271 271 272
281 281 280 280 280 279 279 278 278 278 277 277 277 276 276 276 276 276 276 276 275 275 274 274 274 274 275 275 274 274 273 272 272 272 272 272 272 272 272 272 271 271 271 272 272 272 272 272 272 271 272 273 273 274 275 274 274 274 274 273 273 272 272 272 272 272 271 271 270 271 271 270 270 270
281 281 280 280 279 279 278 278 278 277 277 277 277 276 276 277 277 276 275 275 274 274 274 274 274 274 274 274 274 273 272 272 272 271 271 272 272 272 272 271 271 271 271 271 272 272 272 272 271 271 271 272 273 274 274 274 274 273 274 273 273 272 272 272 271 271 271 271 270 270 270 270 270 270
282 281 280 280 279 279 278 278 278 277 277 277 277 277 277 277 276 275 274 274 274 273 273 273 273 274 274 273 273 273 272 272 271 271 271 271 271 271 271 271 271 270 270 271 271 271 271 271 271 271 271 271 272 273 274 273 273 273 273 273 273 272 272 272 271 271 271 271 270 270 270 270 270 270
282 281 281 280 280 279 279 278 278 278 278 278 278 278 277 276 275 274 274 274 273 273 273 273 273 273 273 273 273 273 272 272 271 270 270 270 271 271 271 271 270 270 270 270 270 271 271 271 271 271 271 271 271 272 272 272 272 272 272 272 273 273 272 271 271 271 271 271 270 270 269 269 270 270
282 282 281 281 280 280 279 279 279 278 278 278 279 278 277 276 275 275 274 274 273 273 273 273 273 273 273 273 272 272 272 272 271 271 270 270 270 271 270 270 270 269 269 269 269 270 271 271 271 271 271 271 270 271 271 271 271 271 272 272 272 272 272 271 271 271 271 270 270 269 269 269 269 269
282 281 281 281 280 280 279 279 279 278 278 278 278 277 277 276 275 275 274 274 273 273 273 273 272 272 272 273 272 272 272 271 271 271 270 270 270 270 270 269 269 268 268 268 269 270 270 270 270 270 270 270 270 270 270 269 270 271 272 272 271 271 271 271 270 270 270 270 270 269 269 269 269 269
281 281 281 281 280 280 279 279 279 278 278 277 277 276 276 275 274 274 273 273 272 272 272 272 272 272 272 272 272 272 272 271 271 270 270 269 269 269 269 269 268 268 268 268 269 269 269 270 270 270 269 270 270 269 269 269 270 271 271 271 271 271 270 270 270 269 269 269 269 269 269 269 269 269
280 280 280 280 280 280 279 279 279 278 278 277 277 276 275 274 274 273 272 272 272 271 271 272 272 272 272 272 272 272 272 271 271 270 269 269 269 268 268 268 268 267 267 268 268 269 269 269 269 269 269 269 269 269 269 269 270 270 270 270 270 270 270 269 269 269 268 268 268 269 269 269 269 269
280 280 280 280 280 280 279 279 279 278 278 277 276 275 275 274 273 273 272 272 271 271 271 271 271 271 272 272 272 271 271 271 271 270 269 269 268 268 267 267 267 267 267 267 267 268 268 268 268 268 268 268 269 269 268 269 270 270 270 270 270 270 270 269 269 268 268 268 269 269 270 270 270 269
281 281 280 280 280 280 279 279 279 278 278 277 276 275 275 274 273 272 272 271 271 271 271 271 271 271 271 272 271 271 271 270 270 269 269 268 268 267 267 266 266 266 266 266 267 267 268 268 268 268 268 268 268 268 268 269 269 269 269 270 270 269 269 269 269 268 268 269 269 269 270 270 270 270
Wind_Speed
26 25 22 20 19 18 16 15 14 13 11 10 9 8 8 8 5 2 1 2 3 5 1 1 3 6 10 14 16 14 13 14 14 17 18 15 16 19 19 16 16 18 19 21 23 25 26 26 26 27 27 27 27 28 29 31 32 32 35 38 39 40 42 43 44 45 46 48 49 50 52 52 53 55
26 25 23 20 19 18 17 15 14 13 11 10 10 9 8 9 7 6 4 2 4 6 0 3 2 7 12 15 14 12 12 13 13 16 16 13 14 18 18 15 15 17 19 21 24 25 25 25 26 26 26 26 27 27 28 30 31 33 35 37 39 40 42 42 43 44 45 47 48 49 51 52 53 55
26 25 23 21 19 18 17 15 14 13 12 10 10 9 9 9 8 8 6 2 3 4 3 4 5 9 12 13 13 11 12 13 14 16 14 11 14 18 17 16 16 18 20 22 24 24 25 25 25 25 25 26 26 27 28 28 30 33 35 37 39 40 41 41 42 43 44 46 47 48 50 51 52 54
26 25 23 21 20 18 17 16 14 13 12 10 10 9 8 8 8 7 8 6 5 4 4 5 6 8 10 11 12 12 13 13 15 16 13 11 16 18 18 18 19 20 20 22 23 24 25 25 25 25 24 25 26 27 27 28 30 32 34 36 38 39 40 41 41 42 43 45 46 47 49 50 51 53
26 25 23 21 20 18 17 16 15 13 12 10 9 8 7 7 7 6 7 8 7 6 4 5 6 7 9 11 11 12 12 14 17 16 12 12 17 18 20 20 21 21 21 21 22 23 25 25 25 25 24 24 25 26 26 27 30 32 34 35 37 39 40 40 41 41 42 43 46 47 47 49 51 52
27 25 23 22 20 19 17 16 14 13 12 11 9 9 8 7 7 6 6 6 6 6 6 7 7 8 10 11 11 12 12 15 18 14 12 15 16 18 20 21 22 22 22 22 23 23 23 23 25 25 24 24 24 25 26 27 29 32 34 35 37 38 39 40 40 40 41 42 44 46 47 48 50 51
27 25 23 22 21 19 18 16 15 13 12 11 9 8 8 8 7 6 6 6 6 6 7 8 9 10 11 11 11 11 11 15 17 12 12 15 16 18 21 21 22 21 21 23 26 24 21 22 24 24 23 23 23 24 25 26 29 32 34 35 36 37 38 39 39 39 40 41 42 45 46 47 48 50
28 26 24 23 21 20 18 17 16 14 12 11 9 8 8 8 7 6 5 4 4 4 5 8 10 10 10 10 11 10 12 16 15 11 14 16 16 18 22 22 21 20 20 24 26 23 21 22 23 23 23 23 23 24 25 26 29 31 33 34 35 36 37 37 38 38 38 39 40 43 45 46 47 49
27 26 24 23 22 20 19 18 16 15 13 11 10 9 8 7 6 5 4 3 3 3 6 9 10 9 8 9 10 9 13 17 14 13 17 18 16 20 23 22 21 19 20 25 26 22 21 23 22 22 23 22 23 24 24 26 29 31 32 33 34 35 36 36 37 37 37 38 39 40 44 45 46 48
26 25 23 23 22 21 19 18 17 15 13 12 11 10 9 7 6 5 4 3 2 3 5 8 10 9 8 9 9 10 14 16 14 16 21 20 18 22 24 23 21 19 21 26 26 23 22 24 22 21 22 21 21 22 23 25 28 30 31 32 33 34 35 36 36 36 36 36 37 38 41 44 45 47
25 24 23 22 21 20 19 17 16 15 14 12 11 10 9 8 7 6 5 4 3 4 5 7 8 8 8 8 9 11 14 14 12 17 24 24 22 23 24 23 19 18 23 27 25 22 22 23 23 21 20 19 19 21 22 24 27 29 29 30 32 33 34 35 35 35 35 35 36 37 39 42 44 46
26 24 23 22 21 20 18 17 15 14 13 12 12 11 10 9 8 7 6 5 5 5 7 7 7 7 7 7 8 12 15 15 15 18 22 22 22 22 23 21 16 17 24 28 25 23 23 24 25 23 21 18 18 19 22 25 27 27 28 29 30 32 33 34 35 35 34 34 35 37 37 40 43 45
27 25 24 23 22 21 19 17 15 14 13 12 11 11 10 10 9 8 7 6 6 7 8 7 5 6 7 7 9 12 14 14 15 19 20 19 19 20 21 18 13 16 25 29 26 24 24 26 27 26 23 19 18 18 22 26 27 26 27 28 29 30 31 33 34 34 35 34 34 36 36 38 40 43
28 26 25 24 23 21 19 18 16 15 14 13 11 10 9 9 9 8 7 7 8 9 8 5 4 5 7 6 7 10 11 12 15 18 19 19 20 20 20 17 15 18 26 29 27 24 23 24 27 28 25 21 18 18 21 24 25 25 26 27 28 29 30 31 32 33 35 34 34 34 35 36 38 40
30 29 27 25 24 22 20 19 17 16 15 14 12 11 10 9 9 8 8 9 9 8 7 5 5 6 7 6 6 8 10 12 15 16 16 17 19 19 17 16 16 21 26 27 27 25 22 22 26 28 25 22 19 18 19 22 24 24 25 26 27 28 29 30 31 32 34 35 34 33 33 35 36 37
31 30 29 27 25 23 21 20 19 18 16 15 13 12 11 10 10 9 8 9 8 7 7 6 6 7 6 5 5 7 9 12 14 14 14 14 15 16 15 14 18 23 25 23 25 25 21 21 26 28 25 22 18 16 18 21 23 24 24 25 26 26 27 28 29 31 32 34 34 33 32 34 35 35
32 31 30 28 26 24 23 21 20 18 17 16 14 13 12 11 10 10 9 9 8 7 7 7 7 6 5 5 5 6 9 12 13 13 14 13 14 15 15 16 20 23 22 20 23 24 21 23 28 28 25 22 17 14 17 20 22 23 23 23 24 25 25 26 27 29 30 32 34 34 33 32 33 34
32 31 29 29 27 26 25 23 21 19 18 17 15 14 13 12 11 10 9 8 7 7 8 8 7 6 5 6 7 9 10 10 11 12 14 14 15 16 16 18 20 19 16 16 18 19 20 25 28 27 25 23 16 12 16 19 21 23 24 24 23 24 24 25 25 27 29 30 32 33 33 32 32 33
31 30 29 28 28 27 25 24 22 20 18 17 15 14 13 12 10 9 8 8 8 8 8 8 7 7 8 9 9 10 10 10 10 12 14 16 16 16 17 19 18 14 13 12 11 14 20 26 27 26 26 23 14 10 15 20 21 23 24 24 22 23 23 23 24 26 27 29 31 32 32 32 32 32
31 30 29 28 27 26 25 23 21 20 18 17 16 14 12 11 10 9 9 8 9 9 9 9 9 9 9 8 8 8 9 9 11 13 15 15 13 13 16 18 16 15 13 9 8 13 21 25 25 26 27 21 12 10 15 19 21 23 24 23 21 22 21 21 23 24 26 27 29 30 31 31 31 32
32 30 29 28 27 26 25 23 21 20 19 18 16 14 13 12 12 12 12 11 11 11 11 12 12 11 9 8 8 8 8 8 10 13 14 11 9 11 13 13 14 17 13 7 7 14 19 22 23 24 26 20 11 10 16 18 20 23 23 22 21 21 21 20 20 22 24 26 27 29 30 30 31 32
32 30 29 28 27 26 24 23 21 21 20 19 17 16 14 15 15 14 14 13 13 13 13 13 12 11 10 9 10 10 9 8 9 11 11 9 8 9 9 9 15 18 10 5 8 15 17 21 22 22 24 18 9 10 17 19 20 22 23 22 21 21 21 20 20 20 22 24 26 28 28 29 31 33
31 31 30 30 28 26 24 22 21 22 21 19 18 17 16 17 16 14 14 14 13 14 13 13 12 10 10 10 10 11 11 11 11 11 10 8 8 8 8 9 11 11 4 3 11 16 16 17 20 20 18 12 9 14 19 20 19 21 22 22 21 21 20 19 19 19 20 22 24 26 27 28 30 32
32 32 32 31 29 26 24 23 22 23 22 21 19 18 19 18 16 13 14 15 14 13 13 12 11 10 10 10 10 10 11 11 10 9 7 7 9 9 9 9 7 8 7 6 11 14 13 14 17 18 13 7 10 19 23 21 18 18 21 23 21 20 20 19 19 19 19 20 22 23 25 26 28 30
34 34 33 32 30 27 25 24 24 24 24 22 21 20 19 18 14 14 15 15 14 14 13 12 12 11 11 10 9 9 10 10 10 9 7 9 11 10 9 9 10 14 14 10 9 12 14 14 16 16 13 10 12 18 24 23 17 16 20 21 19 19 20 20 19 19 19 20 21 22 23 24 26 27
35 35 34 32 30 29 27 26 26 26 25 23 22 20 19 18 17 17 17 15 15 15 14 13 13 13 12 10 9 10 11 10 10 10 10 11 12 10 10 10 12 16 15 12 11 14 15 15 14 12 13 14 15 17 20 20 18 18 20 19 16 17 19 19 18 19 19 20 21 21 21 22 23 24
35 35 33 32 31 29 28 27 27 27 26 23 22 21 20 19 18 18 19 17 16 16 15 15 15 14 13 12 11 11 12 12 11 11 12 13 12 11 10 10 11 15 16 14 14 13 13 14 13 11 11 13 15 15 15 16 18 21 22 20 16 14 15 17 17 17 18 19 20 19 20 22 24 23
33 33 32 32 31 30 28 28 28 28 25 23 21 21 19 18 18 20 21 19 17 17 17 17 17 16 14 13 12 12 12 12 12 13 13 13 11 10 9 9 10 12 14 14 12 10 11 12 11 10 10 11 12 12 12 16 20 22 22 22 17 12 12 15 16 16 16 18 18 19 20 23 25 25
30 31 31 31 30 29 28 29 28 26 22 20 20 19 17 18 21 23 22 20 19 20 20 20 19 17 15 14 13 13 13 14 14 14 12 10 8 8 9 10 11 11 12 12 10 9 10 10 9 10 11 9 10 12 14 18 21 19 19 20 17 11 10 13 15 14 15 16 17 17 19 21 23 24
27 28 28 29 29 29 28 28 27 24 21 20 19 18 18 22 25 25 23 22 23 23 22 21 19 16 14 14 14 14 15 15 14 12 10 9 8 8 9 10 11 10 9 10 9 8 10 10 8 9 11 10 10 12 13 16 18 17 15 15 14 10 8 11 13 12 13 15 15 14 15 17 20 22
26 25 25 25 26 26 25 26 26 25 24 23 22 21 23 26 27 25 23 23 24 23 21 19 17 16 15 16 16 16 16 14 12 10 9 9 10 9 9 11 11 8 5 6 6 7 9 10 9 9 11 11 10 10 10 12 16 16 13 10 10 10 10 11 10 11 12 12 11 12 13 16 19 20
25 23 22 22 22 22 23 24 26 26 26 27 27 27 27 28 27 24 23 24 25 24 21 18 18 17 18 17 17 16 15 14 12 10 9 10 10 9 9 10 11 9 6 5 5 6 8 10 11 12 12 11 9 9 10 11 12 12 11 10 9 9 10 10 9 9 10 9 9 11 13 14 17 18
24 22 21 22 23 25 26 27 28 28 29 29 30 30 29 29 27 26 26 27 27 25 23 21 20 20 19 18 17 15 15 14 12 11 11 11 10 10 10 12 12 11 8 6 6 7 8 9 12 14 13 11 9 8 10 12 10 9 11 12 10 9 10 10 9 9 8 8 8 9 10 11 13 15
24 24 25 27 28 29 30 31 30 31 31 30 30 30 30 29 29 28 29 30 28 26 24 23 22 20 19 18 17 15 15 14 12 12 12 11 12 12 13 14 13 11 9 8 8 8 9 9 12 14 13 10 10 10 11 12 12 10 9 10 10 10 10 9 8 8 7 6 7 7 7 8 9 12
26 28 29 30 31 31 31 31 31 30 30 30 30 30 30 30 30 31 31 31 29 26 25 24 22 21 20 19 17 16 15 14 13 13 13 12 12 13 13 13 14 12 11 11 10 9 9 10 11 11 9 8 9 10 10 11 12 10 8 8 9 9 10 9 7 7 5 4 5 5 5 5 7 8
30 31 31 31 31 31 31 31 30 29 29 30 30 30 30 31 32 33 33 31 29 27 26 24 23 22 20 19 18 17 16 15 14 14 14 14 14 14 13 14 14 13 12 12 11 9 9 10 9 8 6 5 5 6 6 7 10 10 9 8 8 9 10 9 7 6 5 4 4 4 3 4 5 6
30 31 31 31 30 29 30 30 29 28 30 30 30 30 31 32 33 33 32 30 28 27 26 25 23 22 21 19 18 17 17 16 16 15 14 14 13 14 14 14 14 13 12 12 10 9 10 11 9 7 6 4 3 3 5 7 9 9 9 9 9 10 10 9 8 7 6 4 3 3 2 2 2 3
29 28 29 29 28 28 28 28 28 28 29 29 29 30 32 32 31 30 29 29 28 27 26 25 24 23 21 20 19 18 17 17 16 16 15 15 14 15 15 14 13 12 12 12 11 10 10 12 10 8 8 7 4 3 4 5 6 7 7 7 7 9 10 9 8 8 7 5 3 2 2 3 2 1
29 28 29 29 29 29 29 29 29 30 30 31 32 33 33 31 30 29 29 30 29 28 27 26 25 24 22 21 20 19 18 18 17 17 16 16 15 15 15 14 14 13 12 13 12 10 11 13 12 10 10 11 10 8 7 7 8 8 8 8 9 10 10 10 9 9 8 6 4 3 3 3 3 3
31 31 31 31 31 30 30 30 31 32 33 34 34 34 33 32 31 31 31 31 31 29 28 28 27 25 24 23 22 20 19 19 18 18 17 16 16 15 14 14 14 13 12 14 14 11 10 12 13 10 9 10 12 14 13 12 13 13 12 11 10 10 10 10 10 10 9 7 5 5 4 4 3 2
31 31 32 32 31 31 30 31 31 31 32 33 32 32 32 31 32 32 33 32 31 30 30 29 28 27 26 24 23 21 20 19 19 18 17 17 16 16 14 14 13 13 13 14 14 10 7 8 9 9 9 9 9 11 10 10 11 12 11 8 7 7 8 9 10 10 10 8 7 6 6 5 5 4
29 30 30 30 30 31 31 31 30 30 31 31 31 31 30 30 31 31 31 31 31 30 30 30 29 28 27 25 23 22 21 20 20 18 17 16 16 15 14 14 15 14 14 14 13 9 7 7 8 9 10 9 8 8 8 8 8 7 7 6 6 7 8 8 9 10 10 9 8 7 6 5 4 4
29 30 30 29 29 30 31 31 31 32 32 32 31 31 30 30 31 31 32 32 32 32 32 31 30 29 28 26 25 23 22 21 20 19 18 17 17 17 17 16 15 14 14 14 14 11 10 9 9 8 9 10 11 10 11 12 10 7 7 7 8 9 8 7 7 7 8 8 8 7 6 6 5 4
30 30 31 31 31 31 32 32 33 33 33 32 32 31 30 31 32 33 34 35 35 34 34 33 32 31 29 27 26 25 24 22 20 19 19 19 18 17 17 16 14 14 13 13 13 11 8 7 7 8 10 12 12 13 14 14 12 11 10 9 10 10 9 8 7 7 7 8 7 5 4 6 7 7
30 31 32 32 32 33 34 34 34 33 33 32 32 31 31 32 33 34 35 35 36 35 35 34 33 32 30 28 27 26 25 22 21 20 19 19 18 17 16 14 13 13 12 11 10 8 6 6 7 9 11 12 13 13 15 15 13 13 12 11 11 11 10 9 9 10 10 10 10 7 4 3 4 6
Wind_Direction
193 192 190 189 187 186 188 186 179 173 172 172 164 158 164 168 168 178 219 247 201 175 144 67 210 261 299 317 331 352 4 354 345 348 355 359 356 350 347 346 345 345 347 350 350 349 349 348 347 347 347 348 348 347 347 346 346 347 348 349 352 355 355 353 352 350 349 348 347 346 346 346 345 343
189 188 186 187 186 185 185 179 173 170 167 166 162 161 169 176 180 174 175 248 207 182 313 6 256 287 307 322 341 359 356 351 351 347 354 2 351 346 351 356 356 353 350 350 351 350 350 349 349 348 348 349 349 349 349 348 348 347 348 352 355 356 355 354 352 351 350 350 349 348 347 347 346 345
187 186 185 185 184 183 181 175 172 171 168 167 165 167 174 178 187 185 175 184 202 206 290 324 304 305 314 329 347 355 351 354 352 348 359 3 344 347 1 7 7 4 356 352 351 351 350 350 351 350 350 351 351 351 351 350 350 349 351 354 356 355 354 354 353 352 351 351 349 350 349 348 348 346
187 187 185 183 183 182 178 174 173 171 171 173 169 171 180 183 187 191 185 197 240 276 302 300 302 315 324 338 351 352 351 352 347 352 5 354 339 351 6 10 11 10 2 354 352 351 350 351 352 353 353 353 353 353 353 353 353 352 354 356 356 356 355 353 353 353 352 352 351 351 350 350 349 348
187 187 185 182 181 180 178 176 175 174 174 176 174 175 184 192 195 194 194 211 250 293 317 314 321 332 337 347 356 351 347 344 345 356 2 344 342 355 6 10 12 11 5 357 353 352 351 352 354 355 354 354 355 355 355 356 355 356 357 358 357 357 355 353 353 353 353 353 353 352 352 352 350 349
186 187 185 181 179 180 180 179 176 177 178 178 180 180 186 198 205 208 213 217 240 280 314 335 344 345 344 351 356 349 340 337 344 356 350 341 348 358 5 10 11 10 6 360 355 356 357 357 356 355 355 354 355 356 358 357 357 359 360 359 359 358 356 354 354 353 353 353 354 354 353 353 352 351
186 186 184 182 180 180 181 181 179 181 182 183 184 184 189 200 210 219 230 226 233 270 309 335 343 345 349 350 349 343 329 331 344 349 340 344 354 358 4 9 9 9 6 0 359 0 5 5 358 355 355 354 354 356 358 359 360 1 1 0 360 359 357 356 356 354 354 354 354 355 354 354 354 353
187 187 185 182 182 183 183 183 182 183 186 187 188 191 197 203 213 222 231 235 236 261 296 319 334 343 343 338 341 336 321 329 344 341 339 353 358 357 4 7 5 7 5 1 1 3 8 9 1 356 355 354 355 356 357 359 0 1 1 1 1 360 358 357 358 356 355 354 354 355 356 356 357 356
190 189 187 184 183 185 185 185 185 186 189 190 190 197 204 206 215 222 227 234 244 266 287 304 322 334 330 329 339 334 322 331 341 339 346 359 359 354 2 6 4 6 3 0 3 5 9 10 5 359 356 355 356 357 358 360 0 360 0 2 2 0 359 359 359 359 358 356 355 356 357 358 359 359
193 191 188 186 186 188 188 187 187 188 191 194 195 200 206 210 214 218 217 218 243 274 284 292 303 314 322 332 339 329 325 333 340 342 349 357 358 354 357 2 5 6 359 358 3 7 7 8 7 3 359 358 357 357 359 360 0 0 360 1 3 1 0 0 0 1 1 360 358 357 358 0 1 1
193 191 189 188 189 190 190 190 190 190 193 196 199 202 206 211 212 210 206 210 239 264 270 274 285 301 320 334 330 319 326 338 347 351 351 351 351 351 351 354 0 2 356 356 3 10 6 4 7 6 3 5 4 3 5 2 360 1 0 1 3 2 2 2 2 2 2 2 1 360 0 2 3 3
193 191 189 191 192 192 193 193 193 195 196 198 201 204 206 209 210 205 203 214 231 240 248 259 276 301 318 328 320 319 337 352 353 351 350 346 343 343 345 351 357 356 352 353 1 10 5 1 5 6 5 9 9 8 12 7 359 359 1 1 2 3 3 4 4 4 3 2 2 0 1 2 4 5
192 191 191 192 194 194 194 195 196 199 202 204 206 208 206 207 209 207 209 221 226 227 236 251 274 303 312 319 322 329 347 354 342 340 344 342 338 335 339 352 360 353 350 349 356 8 4 357 0 3 4 10 9 9 14 7 358 357 1 1 2 3 4 5 6 6 4 2 1 360 360 2 3 5
191 192 193 194 195 196 196 196 198 201 204 208 212 213 212 212 213 214 216 221 222 225 235 249 271 292 297 306 321 332 340 336 330 337 344 340 337 338 340 348 352 351 350 347 350 3 3 354 355 359 2 7 7 9 12 2 354 357 1 2 3 4 5 5 5 6 5 3 2 1 1 2 3 5
191 192 194 196 196 196 197 197 200 203 206 210 213 216 218 220 222 226 225 223 223 228 238 247 251 264 277 291 317 327 327 325 327 337 342 335 336 341 341 337 336 344 349 345 341 351 0 354 351 356 1 3 4 8 8 357 353 359 2 2 4 4 5 6 6 6 6 6 4 2 2 3 4 6
193 193 195 196 196 197 198 199 202 204 206 209 212 216 220 222 225 230 229 227 230 238 245 247 243 248 261 282 310 319 316 318 324 331 335 332 332 335 331 321 321 334 346 345 335 340 354 353 347 352 1 2 1 7 8 358 356 0 3 3 4 5 5 6 7 7 8 8 8 6 4 4 5 6
196 196 195 195 196 198 200 202 203 205 207 208 210 213 217 220 223 225 226 229 238 248 251 249 244 242 256 278 297 300 301 311 322 326 325 323 322 323 320 312 314 329 345 345 331 331 344 349 344 348 358 1 0 7 7 360 358 1 4 4 4 5 6 6 7 8 9 10 10 9 8 7 7 8
199 199 198 197 197 199 201 203 203 205 207 208 209 211 213 216 218 221 225 230 241 250 251 252 249 241 252 270 277 282 291 305 318 317 311 311 314 315 312 307 312 328 345 344 332 326 335 344 341 342 353 0 1 6 4 358 359 3 4 5 6 6 7 7 7 9 10 10 11 11 10 10 11 12
203 202 201 201 201 201 202 203 203 205 207 208 210 211 213 216 219 224 231 234 243 251 251 253 255 249 255 265 271 283 297 306 308 299 293 298 306 309 308 306 313 333 350 350 342 323 326 338 340 339 349 358 2 10 4 355 358 3 3 4 8 10 10 10 10 10 10 10 11 12 11 11 14 17
204 205 204 204 205 204 204 204 204 206 208 210 211 213 215 220 226 234 239 239 244 252 253 253 254 253 259 268 274 284 295 295 290 284 285 296 305 306 309 310 317 337 353 3 352 322 321 335 341 339 345 354 3 12 3 354 355 1 2 3 9 12 12 13 13 12 11 10 11 12 12 12 16 22
205 206 206 207 207 207 206 206 206 207 210 211 213 215 217 222 229 232 232 233 237 244 248 247 249 253 258 265 271 275 273 270 273 275 283 297 303 303 311 314 318 333 354 20 350 325 324 335 341 339 342 351 8 11 1 357 355 357 360 3 9 12 12 13 14 13 12 11 11 14 14 12 15 22
205 206 208 210 210 209 208 208 207 210 212 213 215 217 218 225 232 229 224 226 231 235 239 240 244 250 257 264 270 272 267 259 263 270 276 284 286 292 302 304 312 328 354 31 341 331 331 337 343 342 340 346 3 0 356 0 357 353 357 2 7 12 11 10 13 14 15 15 13 15 16 14 14 20
204 206 209 211 212 212 210 210 210 213 216 216 218 220 221 228 234 228 222 225 229 233 236 241 245 250 257 266 270 269 266 262 263 267 268 267 267 272 282 295 312 328 356 11 338 334 331 334 343 348 344 340 339 338 348 1 357 348 350 356 2 9 11 10 13 15 18 20 17 16 17 16 15 18
203 206 210 212 213 213 212 212 214 217 220 220 221 223 226 233 237 229 223 227 231 235 239 243 246 249 254 263 267 266 267 267 267 269 266 257 255 258 268 283 290 281 282 319 336 329 322 325 336 344 345 325 313 324 337 352 355 345 345 351 359 6 9 10 15 18 21 24 23 20 19 19 20 20
206 208 210 212 213 213 213 214 216 219 222 223 224 227 232 237 238 231 229 231 233 236 240 242 245 247 250 256 262 266 271 271 268 266 256 247 249 252 261 269 267 271 287 313 320 310 312 317 323 334 336 319 308 315 326 339 347 342 341 347 355 4 7 10 14 17 21 23 26 27 24 22 24 25
210 213 214 214 213 214 215 216 218 221 223 223 225 230 234 235 234 232 232 232 233 238 242 242 244 246 247 251 258 262 267 269 268 264 255 249 250 252 255 258 262 273 290 309 308 301 303 305 310 322 323 315 312 313 318 327 334 332 334 343 353 359 3 8 12 17 22 24 26 30 31 29 29 29
216 218 218 217 215 216 217 219 221 222 222 223 226 230 233 231 230 232 232 230 232 238 241 242 244 246 247 250 253 255 258 261 262 258 253 254 255 256 259 262 265 275 287 298 300 292 283 286 299 312 309 306 310 311 310 315 322 325 330 340 350 354 359 6 13 18 23 25 27 30 34 38 36 33
224 223 222 220 219 218 220 222 224 223 221 221 224 228 230 226 223 229 232 230 230 234 237 239 244 246 248 251 252 252 253 255 257 256 255 258 261 266 277 284 280 280 284 286 284 275 268 276 298 315 312 301 296 298 303 308 315 321 325 333 346 359 5 7 12 18 24 26 26 29 35 40 39 36
230 229 227 224 222 221 224 224 223 221 220 219 222 224 224 222 223 229 233 230 228 232 235 239 244 248 250 252 252 251 250 250 254 258 259 258 259 266 279 283 278 279 281 276 268 262 265 278 298 314 315 304 285 287 297 302 307 314 320 328 340 356 6 8 12 17 22 24 27 33 42 45 43 40
232 234 232 228 224 223 223 221 220 221 220 218 220 222 221 223 228 232 233 232 231 234 237 240 244 248 248 248 248 248 249 251 252 253 252 253 255 261 271 276 276 277 271 262 258 258 268 281 294 301 308 309 293 287 291 296 302 309 316 325 334 340 351 4 11 15 17 24 31 40 49 52 50 46
232 234 234 231 228 224 220 218 219 223 222 218 218 221 222 225 230 233 235 237 239 242 242 243 245 245 242 242 244 246 250 252 250 242 240 247 254 259 268 277 281 279 252 241 257 269 272 282 288 290 299 307 304 297 292 289 296 306 314 321 325 328 336 350 4 12 14 23 34 39 45 54 56 51
230 233 232 230 228 222 216 216 219 221 221 220 220 222 224 227 232 235 236 238 240 243 243 241 241 239 239 241 244 246 247 246 241 233 232 240 252 260 266 272 279 281 260 238 255 269 269 274 281 284 289 293 295 304 308 297 292 300 309 311 308 312 325 338 352 2 7 18 32 37 44 57 62 57
227 227 226 224 222 217 215 216 217 219 220 221 222 225 228 231 234 235 235 236 238 239 239 238 237 237 239 241 241 241 241 238 233 227 226 230 241 250 256 262 269 277 276 263 261 268 266 264 270 276 281 280 280 292 302 300 295 295 299 302 301 303 315 330 339 345 356 11 23 31 42 57 65 65
225 224 223 222 220 218 217 216 216 218 219 220 223 226 230 233 234 234 235 236 238 239 238 238 238 237 238 238 236 234 234 233 228 223 222 228 236 241 250 259 263 267 272 270 267 269 269 263 265 270 272 272 274 277 277 281 289 294 292 292 296 300 308 319 328 335 350 3 7 14 29 47 65 74
225 224 224 223 222 221 220 220 220 220 221 223 226 229 231 233 234 234 235 237 237 236 236 236 236 235 235 235 233 231 230 229 226 222 219 223 234 242 248 256 262 266 268 266 264 268 271 273 276 276 271 269 278 282 274 268 275 282 279 278 287 296 303 310 317 323 336 348 350 359 16 31 51 72
228 227 227 227 227 225 225 225 225 225 225 228 230 231 232 233 234 235 236 237 236 234 234 234 233 233 233 233 232 229 226 225 225 223 220 220 228 238 244 249 257 264 265 265 268 270 270 276 280 273 266 271 280 282 274 260 259 263 266 268 273 283 294 303 305 307 315 329 337 346 5 22 38 60
231 231 231 233 233 230 231 231 230 230 231 232 233 234 235 238 238 237 237 236 235 233 233 233 233 233 232 230 229 226 224 224 224 224 222 221 224 232 241 248 254 258 259 261 263 261 262 271 272 253 241 252 265 262 259 253 248 252 259 263 265 273 285 293 291 289 299 314 322 323 336 350 19 57
235 237 238 239 239 238 238 237 236 236 237 236 237 239 240 241 242 239 235 234 233 232 231 231 231 231 229 227 225 224 223 223 224 223 221 219 220 226 236 245 251 256 259 259 256 252 255 262 264 246 227 223 229 248 254 245 238 241 251 262 272 279 282 281 279 279 283 291 295 287 293 312 320 340
240 242 243 245 245 244 243 242 240 240 240 240 240 241 241 240 239 236 233 232 231 230 228 229 229 228 227 226 225 224 222 220 221 221 219 218 221 227 234 240 245 251 259 261 257 250 245 249 255 253 239 233 237 245 250 254 255 255 260 273 284 284 277 271 268 269 273 276 277 269 265 278 301 307
242 244 245 246 246 246 245 244 243 242 242 242 242 242 240 238 236 234 232 230 228 227 226 227 227 225 224 223 222 221 221 220 219 221 221 218 219 224 229 236 242 247 254 260 261 255 246 247 252 257 262 261 255 251 253 260 264 264 265 270 277 278 272 265 261 261 265 269 265 260 261 263 278 297
244 246 247 248 248 248 248 248 248 247 246 245 245 244 243 241 238 236 233 230 228 226 225 224 223 221 221 221 219 218 219 219 219 220 219 216 218 222 226 232 238 238 244 254 260 261 258 251 246 251 269 273 255 243 243 248 257 265 266 260 264 275 273 265 258 254 256 260 255 250 253 260 272 279
250 251 253 252 252 252 251 251 251 251 250 249 248 247 245 243 239 237 234 231 229 227 225 223 221 220 219 220 219 218 218 219 218 217 215 214 216 217 219 224 230 233 238 247 253 255 255 252 249 256 265 258 233 224 231 233 242 261 261 244 254 279 279 265 256 253 252 252 248 244 244 247 257 269
255 256 257 257 256 255 254 253 252 252 252 251 250 248 246 243 239 235 231 229 226 225 224 222 221 220 219 218 218 218 219 219 218 214 211 210 213 216 218 222 228 232 236 242 247 247 245 248 256 261 255 240 228 229 241 246 249 257 255 251 263 276 274 261 250 247 248 246 241 241 247 249 247 251
258 259 259 259 258 258 257 256 255 254 253 252 251 249 246 243 239 236 232 228 226 224 223 221 219 219 218 217 215 216 218 219 218 215 211 210 212 217 221 223 226 230 234 241 248 246 236 237 250 252 246 240 237 238 246 253 256 255 256 260 262 261 259 255 241 230 228 227 223 229 263 268 257 254
261 261 262 262 261 261 260 259 258 256 254 252 251 249 247 245 242 238 233 229 227 225 223 220 218 218 217 215 214 215 216 217 216 215 213 212 211 214 217 220 224 228 232 238 246 247 240 234 235 237 242 249 251 248 249 253 255 254 256 258 254 247 247 249 241 233 231 228 220 222 255 286 267 254